Three Rivers, MI

1:25 PM EDT on September 29, 2016 (GMT -0400)
Three Rivers Municipal-Haines

Weather History for KHAI - February, 2013

Change the Weather History Date:

Thursday, February 14, 2013

  Actual Average Record
Temperature  
Mean Temperature 34 °F -  
Max Temperature 39 °F 34 °F 59 °F (1990)
Min Temperature 30 °F 16 °F -5 °F (1970)
Degree Days  
Heating Degree Days 30    
Moisture  
Dew Point 29 °F    
Average Humidity 80    
Maximum Humidity 92    
Minimum Humidity 67    
Precipitation  
Precipitation 0.00 in - - ()
Sea Level Pressure  
Sea Level Pressure 29.76 in    
Wind  
Wind Speed 9 mph (SW)    
Max Wind Speed 23 mph    
Max Gust Speed 36 mph    
Visibility 8 miles    
Events      
Averages and records for this station are not official NWS values.
T = Trace of Precipitation, MM = Missing Value Source: NWS Daily Summary

Daily Weather History Graph

Daily Weather History Graph

Search for Another Location

Airport or City:

Trip Planner

Search our weather history database for the weather conditions in past years. The results will help you decide how hot, cold, wet, or windy it might be!

Date:

Astronomy

Feb. 14, 2013 Rise Set
Actual Time 7:39 AM EST 6:14 PM EST
Civil Twilight 7:10 AM EST 6:43 PM EST
Nautical Twilight 6:37 AM EST 7:15 PM EST
Astronomical Twilight 6:05 AM EST 7:48 PM EST
Moon 9:35 AM EST (2/14) 11:22 PM EST (2/14)
Length of Visible Light 11h 32m
Length of Day
10h 35m
Waxing Crescent, 21% of the Moon is Illuminated
Feb 14
Waxing Crescent
Feb 17
First Quarter
Feb 25
Full
Mar 4
Last Quarter
Mar 11
New

Hourly Weather History & Observations

Time (EST) Temp. Windchill Dew Point Humidity Pressure Visibility Wind Dir Wind Speed Gust Speed Precip Events Conditions
12:14 AM 31.1 °F 26.4 °F 27.5 °F 87% 29.75 in 7.0 mi SSW 4.6 mph - N/A   Clear
12:35 AM 31.1 °F 27.7 °F 27.3 °F 86% 29.75 in 7.0 mi SSW 3.5 mph - N/A   Clear
12:55 AM 31.5 °F 28.1 °F 27.9 °F 87% 29.75 in 7.0 mi SSW 3.5 mph - N/A   Clear
1:14 AM 30.6 °F 25.8 °F 27.1 °F 87% 29.75 in 5.0 mi SSW 4.6 mph - N/A   Clear
1:35 AM 30.4 °F 26.9 °F 27.5 °F 89% 29.75 in 5.0 mi SSW 3.5 mph - N/A   Scattered Clouds
1:55 AM 30.9 °F 27.5 °F 28.0 °F 89% 29.75 in 5.0 mi SSW 3.5 mph - N/A   Overcast
2:14 AM 31.5 °F 28.1 °F 28.8 °F 90% 29.75 in 5.0 mi SW 3.5 mph - N/A   Overcast
2:35 AM 31.6 °F 27.0 °F 28.9 °F 90% 29.75 in 5.0 mi SSW 4.6 mph - N/A   Overcast
2:54 AM 32.0 °F 28.7 °F 29.3 °F 90% 29.75 in 5.0 mi SSW 3.5 mph - N/A   Overcast
3:15 AM 31.8 °F - 29.1 °F 90% 29.75 in 5.0 mi Calm Calm - N/A   Overcast
3:34 AM 32.0 °F 28.7 °F 29.3 °F 90% 29.75 in 5.0 mi South 3.5 mph - N/A   Overcast
3:55 AM 32.0 °F 26.4 °F 29.7 °F 91% 29.74 in 5.0 mi SSW 5.8 mph - N/A   Overcast
4:15 AM 32.4 °F 26.0 °F 30.0 °F 91% 29.74 in 5.0 mi SSW 6.9 mph - N/A   Overcast
4:34 AM 32.0 °F 28.7 °F 29.3 °F 90% 29.74 in 5.0 mi South 3.5 mph - N/A   Overcast
4:55 AM 32.0 °F 26.4 °F 29.3 °F 90% 29.74 in 5.0 mi SSW 5.8 mph - N/A   Mostly Cloudy
5:15 AM 32.0 °F 26.4 °F 29.3 °F 90% 29.73 in 5.0 mi SSW 5.8 mph - N/A   Scattered Clouds
5:34 AM 32.0 °F 26.4 °F 29.8 °F 92% 29.73 in 5.0 mi SSW 5.8 mph - N/A   Mostly Cloudy
5:55 AM 32.0 °F 26.4 °F 30.0 °F 92% 29.73 in 5.0 mi South 5.8 mph - N/A   Scattered Clouds
6:14 AM 32.2 °F 25.8 °F 30.0 °F 92% 29.72 in 5.0 mi SSW 6.9 mph - N/A   Mostly Cloudy
6:34 AM 32.0 °F 26.4 °F 30.0 °F 92% 29.72 in 5.0 mi SSW 5.8 mph - N/A   Mostly Cloudy
6:55 AM 32.2 °F 26.7 °F 30.0 °F 92% 29.72 in 5.0 mi South 5.8 mph - N/A   Mostly Cloudy
7:14 AM 32.4 °F 26.0 °F 30.2 °F 92% 29.72 in 5.0 mi South 6.9 mph - N/A   Mostly Cloudy
7:35 AM 32.9 °F 25.9 °F 30.2 °F 90% 29.71 in 7.0 mi South 8.1 mph - N/A   Overcast
7:54 AM 33.3 °F 25.1 °F 30.2 °F 89% 29.71 in 7.0 mi South 10.4 mph - N/A   Overcast
8:14 AM 33.8 °F 27.0 °F 30.2 °F 87% 29.70 in 5.0 mi South 8.1 mph - N/A   Overcast
8:35 AM 33.8 °F 27.0 °F 30.4 °F 87% 29.70 in 7.0 mi South 8.1 mph - N/A   Overcast
8:54 AM 34.0 °F 26.0 °F 30.7 °F 88% 29.70 in 5.0 mi South 10.4 mph - N/A   Overcast
9:15 AM 35.2 °F 28.1 °F 31.3 °F 85% 29.70 in 7.0 mi South 9.2 mph - N/A   Overcast
9:35 AM 35.8 °F 26.9 °F 31.6 °F 85% 29.69 in 7.0 mi South 13.8 mph 19.6 mph N/A   Overcast
9:54 AM 37.0 °F 28.5 °F 32.0 °F 82% 29.69 in 7.0 mi South 13.8 mph - N/A   Scattered Clouds
10:15 AM 37.4 °F 28.5 °F 32.0 °F 81% 29.69 in 7.0 mi SSW 15.0 mph - N/A   Scattered Clouds
10:35 AM 38.3 °F 29.3 °F 32.0 °F 78% 29.69 in 10.0 mi SW 16.1 mph 25.3 mph N/A   Overcast
10:54 AM 37.4 °F 27.8 °F 32.0 °F 81% 29.69 in 7.0 mi SW 17.3 mph 26.5 mph N/A   Overcast
11:15 AM 37.8 °F 29.8 °F 32.0 °F 80% 29.69 in 10.0 mi SW 12.7 mph 24.2 mph N/A   Overcast
11:35 AM 38.8 °F 31.2 °F 32.2 °F 77% 29.69 in 10.0 mi SW 12.7 mph 21.9 mph N/A   Overcast
11:54 AM 38.3 °F 30.1 °F 32.0 °F 78% 29.69 in 10.0 mi SW 13.8 mph 21.9 mph N/A   Overcast
12:15 PM 39.2 °F 31.2 °F 32.2 °F 76% 29.69 in 10.0 mi SW 13.8 mph 18.4 mph N/A   Overcast
12:34 PM 39.2 °F 31.6 °F 32.0 °F 75% 29.69 in 10.0 mi SW 12.7 mph 20.7 mph N/A   Overcast
12:55 PM 38.7 °F 31.4 °F 32.0 °F 77% 29.68 in 10.0 mi SW 11.5 mph 19.6 mph N/A   Overcast
1:15 PM 38.7 °F 30.9 °F 32.0 °F 77% 29.68 in 10.0 mi SW 12.7 mph 18.4 mph N/A   Overcast
1:34 PM 38.5 °F 32.1 °F 32.0 °F 78% 29.68 in 10.0 mi SW 9.2 mph - N/A   Overcast
1:55 PM 38.7 °F 31.8 °F 32.0 °F 77% 29.67 in 10.0 mi SW 10.4 mph 18.4 mph N/A   Overcast
2:14 PM 38.5 °F 33.4 °F 32.0 °F 78% 29.67 in 10.0 mi SW 6.9 mph - N/A   Overcast
2:35 PM 37.8 °F 29.8 °F 30.2 °F 74% 29.68 in 10.0 mi West 12.7 mph 25.3 mph N/A   Overcast
2:55 PM 37.4 °F 28.5 °F 29.8 °F 74% 29.69 in 10.0 mi West 15.0 mph 25.3 mph N/A   Overcast
3:14 PM 37.8 °F 29.8 °F 30.2 °F 74% 29.70 in 10.0 mi West 12.7 mph - N/A   Overcast
3:35 PM 38.3 °F 31.4 °F 28.9 °F 69% 29.71 in 10.0 mi West 10.4 mph 21.9 mph N/A   Overcast
3:55 PM 38.3 °F 31.9 °F 28.4 °F 68% 29.72 in 10.0 mi West 9.2 mph 23.0 mph N/A   Overcast
4:14 PM 38.3 °F 30.1 °F 28.0 °F 67% 29.72 in 10.0 mi West 13.8 mph 20.7 mph N/A   Overcast
4:35 PM 38.3 °F 29.7 °F 28.0 °F 67% 29.73 in 10.0 mi WSW 15.0 mph 25.3 mph N/A   Overcast
4:55 PM 37.8 °F 28.6 °F 28.2 °F 68% 29.74 in 10.0 mi West 16.1 mph 20.7 mph N/A   Overcast
5:14 PM 37.4 °F 29.8 °F 28.4 °F 70% 29.75 in 10.0 mi WSW 11.5 mph 23.0 mph N/A   Overcast
5:35 PM 37.0 °F 26.4 °F 29.1 °F 73% 29.77 in 10.0 mi West 20.7 mph 31.1 mph N/A   Overcast
5:55 PM 36.0 °F 24.4 °F 28.9 °F 76% 29.79 in 10.0 mi West 23.0 mph 35.7 mph N/A   Overcast
6:14 PM 35.6 °F 25.5 °F 28.4 °F 75% 29.80 in 10.0 mi West 17.3 mph 32.2 mph N/A   Overcast
6:35 PM 35.1 °F 24.8 °F 27.9 °F 75% 29.81 in 10.0 mi West 17.3 mph 28.8 mph N/A   Overcast
6:54 PM 35.1 °F 24.8 °F 27.5 °F 74% 29.82 in 10.0 mi West 17.3 mph 24.2 mph N/A   Overcast
7:15 PM 34.9 °F 23.3 °F 27.3 °F 74% 29.84 in 10.0 mi West 21.9 mph 26.5 mph N/A   Overcast
7:35 PM 34.7 °F 24.3 °F 27.1 °F 74% 29.85 in 10.0 mi West 17.3 mph 25.3 mph N/A   Overcast
7:54 PM 34.7 °F 24.7 °F 27.0 °F 73% 29.86 in 10.0 mi West 16.1 mph 27.6 mph N/A   Overcast
8:15 PM 34.2 °F 24.0 °F 26.1 °F 72% 29.86 in 10.0 mi West 16.1 mph - N/A   Overcast
8:35 PM 33.8 °F 22.8 °F 25.3 °F 71% 29.87 in 10.0 mi West 18.4 mph 24.2 mph N/A   Overcast
8:54 PM 33.6 °F 22.9 °F 24.8 °F 70% 29.87 in 10.0 mi West 17.3 mph 23.0 mph N/A   Overcast
9:15 PM 33.3 °F 22.5 °F 24.6 °F 71% 29.88 in 10.0 mi West 17.3 mph 21.9 mph N/A   Overcast
9:35 PM 33.3 °F 21.8 °F 24.4 °F 70% 29.89 in 10.0 mi West 19.6 mph 25.3 mph N/A   Overcast
9:54 PM 32.9 °F 21.0 °F 24.4 °F 71% 29.90 in 10.0 mi West 20.7 mph 27.6 mph N/A   Overcast
10:15 PM 32.9 °F 22.0 °F 24.4 °F 71% 29.90 in 10.0 mi West 17.3 mph 28.8 mph N/A   Overcast
10:35 PM 32.9 °F 22.4 °F 24.6 °F 72% 29.91 in 10.0 mi West 16.1 mph 19.6 mph N/A   Overcast
10:54 PM 32.5 °F 21.9 °F 24.8 °F 73% 29.91 in 10.0 mi West 16.1 mph 21.9 mph N/A   Overcast
11:15 PM 32.7 °F 23.0 °F 25.0 °F 73% 29.91 in 10.0 mi West 13.8 mph 19.6 mph N/A   Overcast
11:34 PM 32.4 °F 22.5 °F 25.3 °F 75% 29.91 in 10.0 mi West 13.8 mph 20.7 mph N/A   Overcast
11:54 PM 32.4 °F 24.6 °F 25.5 °F 76% 29.91 in 10.0 mi West 9.2 mph 18.4 mph N/A   Overcast